Weather History for Jamestown, ND

Change the Weather History Date:

Thursday, February 23, 2012

  Actual Average Record
Temperature  
Mean Temperature 26 °F 18 °F  
Max Temperature 34 °F 27 °F 60 °F (1905)
Min Temperature 18 °F 9 °F -26 °F (1910)
Degree Days  
Heating Degree Days 39 47  
Month to date heating degree days 949 1168  
Since 1 July heating degree days 5304 6530  
Cooling Degree Days 0 0  
Month to date cooling degree days 0 0  
Year to date cooling degree days 0 0  
Moisture  
Dew Point 23 °F    
Average Humidity 78    
Maximum Humidity 92    
Minimum Humidity 63    
Precipitation  
Precipitation 0.04 in 0.02 in 0.46 in (1982)
Month to date precipitation 0.24 0.30  
Year to date precipitation 0.34 0.75  
Sea Level Pressure  
Sea Level Pressure 29.64 in    
Wind  
Wind Speed 12 mph (WNW)    
Max Wind Speed 31 mph    
Max Gust Speed 38 mph    
Visibility 6 miles    
Events Fog , Snow    
T = Trace of Precipitation, MM = Missing Value Source: NWS Daily Summary

Daily Weather History Graph

Daily Weather History Graph

Search for Another Location

Airport:

Trip Planner

Search our weather history database for the weather conditions in past years. The results will help you decide how hot, cold, wet, or windy it might be!

Date:

Astronomy

Feb. 23, 2012 Rise Set
Actual Time 7:26 AM CST 6:10 PM CST
Civil Twilight 6:55 AM CST 6:41 PM CST
Nautical Twilight 6:20 AM CST 7:16 PM CST
Astronomical Twilight 5:45 AM CST 7:52 PM CST
Moon 7:43 AM CST (2/23) 8:30 PM CST (2/23)
Length of Visible Light 11h 46m
Length of Day
10h 44m
Waxing Crescent, 3% of the Moon is Illuminated
Feb 23
Waxing Crescent
Feb 29
First Quarter
Mar 8
Full
Mar 14
Last Quarter
Mar 22
New

Hourly Weather History & Observations

Time (CST) Temp. Windchill Dew Point Humidity Pressure Visibility Wind Dir Wind Speed Gust Speed Precip Events Conditions
12:56 AM 19.0 °F - 17.1 °F 92% 29.45 in 4.0 mi Calm Calm - N/A   Clear
1:56 AM 19.0 °F 13.9 °F 17.1 °F 92% 29.47 in 4.0 mi SSE 3.5 mph - N/A   Partly Cloudy
2:56 AM 21.0 °F 14.6 °F 19.0 °F 92% 29.48 in 5.0 mi SSE 4.6 mph - N/A   Mostly Cloudy
3:56 AM 19.9 °F - 18.0 °F 92% 29.48 in 4.0 mi Calm Calm - N/A   Clear
4:56 AM 18.0 °F 11.1 °F 16.0 °F 92% 29.51 in 4.0 mi ENE 4.6 mph - N/A   Clear
5:56 AM 19.9 °F - 18.0 °F 92% 29.52 in 5.0 mi Calm Calm - N/A   Overcast
6:56 AM 21.0 °F - 19.0 °F 92% 29.55 in 4.0 mi Calm Calm - N/A   Overcast
7:56 AM 23.0 °F 17.0 °F 19.9 °F 88% 29.58 in 3.0 mi WSW 4.6 mph - N/A   Overcast
8:56 AM 25.0 °F 18.1 °F 21.9 °F 88% 29.59 in 3.0 mi South 5.8 mph - N/A   Overcast
9:25 AM 26.6 °F 20.0 °F 24.8 °F 93% 29.54 in 4.0 mi SW 5.8 mph - 0.00 in Snow Light Snow
9:32 AM 26.6 °F 20.0 °F 24.8 °F 93% 29.55 in 1.8 mi SW 5.8 mph - 0.00 in Snow Light Snow
9:53 AM 28.4 °F 20.4 °F 26.6 °F 93% 29.55 in 0.8 mi SW 8.1 mph - 0.00 in Snow Light Snow
9:56 AM 28.0 °F 19.3 °F 26.1 °F 92% 29.62 in 0.8 mi SW 9.2 mph - 0.00 in Snow Light Snow
10:40 AM 30.2 °F 21.9 °F 28.4 °F 93% 29.56 in 0.5 mi WSW 9.2 mph - 0.00 in Fog , Snow Snow
10:48 AM 30.2 °F 21.9 °F 28.4 °F 93% 29.57 in 0.2 mi WSW 9.2 mph - 0.01 in Fog , Snow Snow
10:56 AM 30.9 °F 22.8 °F 28.9 °F 92% 29.63 in 0.2 mi West 9.2 mph - 0.01 in Fog , Snow Snow
11:11 AM 32.0 °F 23.6 °F 30.2 °F 93% 29.57 in 0.5 mi West 10.4 mph - 0.01 in Fog , Snow Snow
11:56 AM 32.0 °F 22.1 °F 30.0 °F 92% 29.65 in 0.8 mi WNW 13.8 mph - 0.03 in Snow Light Snow
12:17 PM 32.0 °F 20.8 °F 30.2 °F 93% 29.60 in 1.2 mi NW 17.3 mph - 0.00 in Snow Light Snow
12:25 PM 32.0 °F 21.2 °F 28.4 °F 87% 29.60 in 1.2 mi NW 16.1 mph - 0.00 in Snow Light Snow
12:41 PM 32.0 °F 20.5 °F 28.4 °F 87% 29.60 in 3.0 mi NW 18.4 mph - 0.00 in Snow Light Snow
12:56 PM 33.1 °F 22.6 °F 28.9 °F 85% 29.66 in 7.0 mi NW 16.1 mph - 0.00 in   Overcast
1:13 PM 33.8 °F 22.2 °F 28.4 °F 81% 29.61 in 10.0 mi NNW 20.7 mph 29.9 mph N/A   Overcast
1:41 PM 33.8 °F 21.9 °F 26.6 °F 75% 29.62 in 10.0 mi NNW 21.9 mph 31.1 mph N/A   Overcast
1:56 PM 34.0 °F 22.1 °F 28.0 °F 79% 29.68 in 10.0 mi NW 21.9 mph 27.6 mph N/A   Overcast
2:09 PM 33.8 °F 22.5 °F 26.6 °F 75% 29.63 in 3.0 mi NNW 19.6 mph 29.9 mph N/A   Haze
2:32 PM 33.8 °F 21.3 °F 24.8 °F 70% 29.63 in 10.0 mi NW 24.2 mph 33.4 mph N/A   Overcast
2:41 PM 33.8 °F 22.5 °F 24.8 °F 70% 29.63 in 10.0 mi NW 19.6 mph 32.2 mph N/A   Mostly Cloudy
2:56 PM 33.1 °F 19.8 °F 24.1 °F 70% 29.70 in 10.0 mi NNW 26.5 mph 32.2 mph N/A   Mostly Cloudy
3:08 PM 33.8 °F 21.3 °F 23.0 °F 65% 29.64 in 10.0 mi NNW 24.2 mph 32.2 mph N/A   Overcast
3:22 PM 32.0 °F 17.9 °F 23.0 °F 69% 29.65 in 10.0 mi NNW 28.8 mph 34.5 mph N/A   Overcast
3:56 PM 32.0 °F 19.2 °F 21.9 °F 66% 29.72 in 10.0 mi NNW 23.0 mph 35.7 mph N/A   Overcast
4:56 PM 32.0 °F 19.2 °F 21.9 °F 66% 29.75 in 10.0 mi NNW 23.0 mph 28.8 mph N/A   Scattered Clouds
5:56 PM 30.0 °F 17.2 °F 19.9 °F 66% 29.77 in 10.0 mi NW 20.7 mph 27.6 mph N/A   Overcast
6:56 PM 28.0 °F 15.3 °F 19.9 °F 72% 29.81 in 10.0 mi NW 18.4 mph 25.3 mph N/A   Overcast
7:56 PM 27.0 °F 14.3 °F 18.0 °F 69% 29.82 in 10.0 mi NNW 17.3 mph 24.2 mph N/A   Overcast
8:56 PM 25.0 °F 13.1 °F 16.0 °F 69% 29.83 in 10.0 mi NW 13.8 mph - N/A   Scattered Clouds
9:56 PM 24.1 °F 13.1 °F 16.0 °F 71% 29.85 in 10.0 mi WNW 11.5 mph - N/A   Overcast
10:56 PM 23.0 °F 10.1 °F 15.1 °F 72% 29.86 in 10.0 mi NW 15.0 mph 25.3 mph N/A   Mostly Cloudy
11:56 PM 19.0 °F 5.6 °F 12.0 °F 74% 29.89 in 10.0 mi NNW 13.8 mph 21.9 mph N/A   Clear